{"data":{"norad_id":59873,"intl_designator":"2024-098R","name":"STARLINK-31940","alt_names":[],"object_type":"PAYLOAD","status":"ACTIVE","operator":null,"country":"US","launch_date":"2024-05-24","launch_site_code":"AFETR","launch_vehicle":null,"mission":null,"orbit_class":"UNKNOWN","rcs_meters":null,"size_class":null,"mass_kg":null,"dimensions":null,"purposes":["comms"],"wikipedia_slug":null,"has_3d_model":false,"image_url":null,"decayed_at":null,"tle_current":{"epoch":"2026-05-25T04:30:59.016384Z","epoch_age_seconds":65675,"freshness":"FRESH","line1":"1 59873U 24098R   26145.18818306 -.00000378  00000+0 -42195-5 0  9993","line2":"2 59873  43.0013 198.3573 0001104 275.9275  84.1451 15.27578287113633","mean_motion":15.27578287,"eccentricity":0.0001104,"inclination_deg":43.0013,"raan_deg":198.3573,"arg_perigee_deg":275.9275,"mean_anomaly_deg":84.1451,"bstar":-4.2195e-6,"rev_number":11363,"period_min":94.266854422761,"perigee_km":482.29674987141,"apogee_km":483.81170089398,"semimajor_km":6861.1912253827,"source":"CELESTRAK","updated_at":"2026-05-25T13:38:19.093343Z"}}}